SCP
0 0 0 0 0 0 0 0 0 0 0 0 0 0 0 0 0 0 0 0 0 0
0 0 0 0 0 0 0 0 0 0 0 0 0 0 0 0 0 0 0 0 0 0
0 0 0 0 0 0 0 0 0 0 0 0 0 0 0 0 0 0 0 0 0 0
0 0 0 0 0 0 0 0 0 0 0 0 0 0 0 0 0 0 0 0 0 0
0 0 0 0 0 0 0 0 0 0 0 0 0 0 0 0 0 0 0 0 0 0
0 0 0 0 0 0 0 0 0 0 0 0 0 0 0 0 0 0 0 0 0 0
0 0 0 0 0 0 0 0 0 0 0 0 0 0 0 0 0 0 0 0 0 0
0 0 0 0 0 0 -0 -0 0 0 0 0 -0 0 0 0 0 0 0 0 0 0
0 0 0 0 0 0 0 0 0 -0 -0 -0 -0 0 -0 0 0 0 0 0 0 0
0 0 -0 0 0 0 0 0 -0 -0 -0 0 0 -0 -0 0 0 0 0 0 0 0
0 0 0 0 0 0 0 0 0 -0 -0 -0 -0 -0 -0 -0 0 0 0 0 0 0
0 0 0 0 0 0 0 0 0 0 -0 -0 -0 -0 -0 -0 0 0 -0 0 0 0
0 0 0 0 0 0 0 0 0 0 -0 -0 -0 -0 -0 0 0 0 0 -0 -0 -0
0 0 0 0 0 0 0 -0 -0 0 0 -0 0 0 -0 -0 0 0 0 0 0 0
Wind_Speed_500mb
92 101 108 109 101 97 92 83 81 67 61 61 62 62 61 60 57 49 58 60 60 49
104 105 102 92 85 70 64 68 65 71 63 64 65 63 53 51 56 60 67 66 65 63
102 94 85 77 66 69 68 67 67 65 55 54 58 56 48 51 53 56 56 67 69 66
90 81 74 70 66 66 66 64 63 59 56 55 53 50 50 51 51 51 47 47 54 67
76 72 67 63 63 62 63 60 58 55 55 53 52 50 48 49 45 46 42 41 39 46
69 64 64 63 63 62 60 57 52 48 46 46 46 47 46 47 45 40 47 46 39 43
60 61 61 63 61 59 55 51 46 42 41 42 40 38 38 38 38 33 31 35 38 34
56 57 59 59 60 56 51 46 44 42 37 28 21 21 24 26 32 30 25 22 20 22
57 55 56 57 54 51 49 45 43 38 33 25 23 21 13 14 22 24 20 20 21 21
51 55 55 53 50 50 49 46 45 42 39 37 34 20 9 22 23 25 25 22 25 19
49 52 51 49 47 44 46 47 47 46 43 40 45 28 25 19 16 17 27 29 30 31
44 45 46 48 46 46 49 49 49 49 48 43 35 27 20 12 22 31 38 43 44 44
40 39 41 42 44 48 53 57 57 56 56 54 51 35 49 57 57 58 55 50 45 43
37 37 38 41 49 57 64 70 70 69 68 70 67 61 56 58 66 66 63 59 52 50
Wind_Direction_500mb
317 316 315 315 312 308 308 306 306 298 286 282 282 278 279 272 269 257 247 242 243 247
320 318 316 315 312 314 305 296 290 290 278 279 281 284 280 274 274 262 249 243 242 244
320 320 320 321 314 315 313 308 302 299 290 282 280 280 275 271 269 271 263 248 244 244
326 329 326 325 321 316 312 310 305 299 292 286 279 274 271 268 267 267 267 253 245 243
332 332 330 330 329 326 321 315 307 300 294 287 279 275 269 265 261 259 254 251 254 249
335 337 338 337 336 333 327 322 316 307 299 293 286 278 270 261 256 253 245 240 239 236
341 344 346 346 342 340 336 331 328 322 312 305 295 282 272 258 247 241 240 235 245 248
347 352 351 348 350 350 349 346 341 334 326 319 310 296 282 254 227 224 231 229 227 211
355 358 354 354 355 358 358 1 360 358 348 332 303 284 256 221 200 188 204 204 204 217
-0 1 359 1 0 4 8 11 15 15 10 357 350 341 183 165 166 184 193 199 205 212
5 3 5 9 12 14 23 26 27 32 30 26 25 31 148 158 163 178 182 178 175 161
7 8 14 18 23 33 41 42 41 45 46 46 55 50 93 129 142 141 124 115 111 114
15 18 28 33 41 50 57 59 59 59 63 66 69 81 107 107 108 108 104 102 103 108
28 33 41 50 61 66 68 68 68 68 66 72 77 80 83 89 96 97 100 100 100 105
Wind_Speed_850mb
92 101 108 109 101 97 92 83 81 67 61 61 62 62 61 60 57 49 58 60 60 49
104 105 102 92 85 70 64 68 65 71 63 64 65 63 53 51 56 60 67 66 65 63
102 94 85 77 66 69 68 67 67 65 55 54 58 56 48 51 53 56 56 67 69 66
90 81 74 70 66 66 66 64 63 59 56 55 53 50 50 51 51 51 47 47 54 67
76 72 67 63 63 62 63 60 58 55 55 53 52 50 48 49 45 46 42 41 39 46
69 64 64 63 63 62 60 57 52 48 46 46 46 47 46 47 45 40 47 46 39 43
60 61 61 63 61 59 55 51 46 42 41 42 40 38 38 38 38 33 31 35 38 34
56 57 59 59 60 56 51 46 44 42 37 28 21 21 24 26 32 30 25 22 20 22
57 55 56 57 54 51 49 45 43 38 33 25 23 21 13 14 22 24 20 20 21 21
51 55 55 53 50 50 49 46 45 42 39 37 34 20 9 22 23 25 25 22 25 19
49 52 51 49 47 44 46 47 47 46 43 40 45 28 25 19 16 17 27 29 30 31
44 45 46 48 46 46 49 49 49 49 48 43 35 27 20 12 22 31 38 43 44 44
40 39 41 42 44 48 53 57 57 56 56 54 51 35 49 57 57 58 55 50 45 43
37 37 38 41 49 57 64 70 70 69 68 70 67 61 56 58 66 66 63 59 52 50
Wind_Direction_850mb
317 316 315 315 312 308 308 306 306 298 286 282 282 278 279 272 269 257 247 242 243 247
320 318 316 315 312 314 305 296 290 290 278 279 281 284 280 274 274 262 249 243 242 244
320 320 320 321 314 315 313 308 302 299 290 282 280 280 275 271 269 271 263 248 244 244
326 329 326 325 321 316 312 310 305 299 292 286 279 274 271 268 267 267 267 253 245 243
332 332 330 330 329 326 321 315 307 300 294 287 279 275 269 265 261 259 254 251 254 249
335 337 338 337 336 333 327 322 316 307 299 293 286 278 270 261 256 253 245 240 239 236
341 344 346 346 342 340 336 331 328 322 312 305 295 282 272 258 247 241 240 235 245 248
347 352 351 348 350 350 349 346 341 334 326 319 310 296 282 254 227 224 231 229 227 211
355 358 354 354 355 358 358 1 360 358 348 332 303 284 256 221 200 188 204 204 204 217
-0 1 359 1 0 4 8 11 15 15 10 357 350 341 183 165 166 184 193 199 205 212
5 3 5 9 12 14 23 26 27 32 30 26 25 31 148 158 163 178 182 178 175 161
7 8 14 18 23 33 41 42 41 45 46 46 55 50 93 129 142 141 124 115 111 114
15 18 28 33 41 50 57 59 59 59 63 66 69 81 107 107 108 108 104 102 103 108
28 33 41 50 61 66 68 68 68 68 66 72 77 80 83 89 96 97 100 100 100 105